• In Hungary
  • List of Countries
  • For 7 days
  • Water Temperature
  • Satellite Maps
  • Weather Map
  • News
  • Weather Widgets
  • user-avatar
    Login

    Hourly Weather Trinidad

    Today, 22 October, Sunday

    Time Temperature Precipitation Wind Pressure Humidity
    00:00 +28°C° 0 mm 1 mps 744 mmHg 79%
    01:00 +27°C° 0 mm 1 mps 743 mmHg 80%
    02:00 +28°C° 0 mm 1 mps 744 mmHg 75%
    03:00 +28°C° 0.1 mm 1 mps 744 mmHg 77%
    04:00 +27°C° 0.1 mm 1 mps 744 mmHg 78%
    05:00 +27°C° 0.1 mm 1 mps 744 mmHg 79%
    06:00 +28°C° 0 mm 1 mps 745 mmHg 76%
    07:00 +29°C° 0 mm 1 mps 746 mmHg 72%
    08:00 +27°C° 0 mm 0 mps 746 mmHg 72%
    09:00 +29°C° 1.2 mm 1 mps 747 mmHg 72%
    10:00 +30°C° 1.2 mm 1 mps 747 mmHg 73%
    11:00 +30°C° 1.2 mm 2 mps 747 mmHg 73%
    12:00 +31°C° 1.2 mm 2 mps 746 mmHg 69%
    13:00 +33°C° 1.2 mm 3 mps 746 mmHg 64%
    14:00 +33°C° 1.2 mm 3 mps 745 mmHg 59%
    15:00 +34°C° 0.1 mm 3 mps 745 mmHg 57%
    16:00 +34°C° 0.1 mm 3 mps 744 mmHg 55%
    17:00 +34°C° 0.1 mm 3 mps 744 mmHg 53%
    18:00 +31°C° 0 mm 3 mps 744 mmHg 57%
    19:00 +30°C° 0 mm 2 mps 744 mmHg 60%
    20:00 +29°C° 0 mm 2 mps 744 mmHg 64%
    21:00 +28°C° 0 mm 2 mps 745 mmHg 65%
    22:00 +27°C° 0 mm 2 mps 745 mmHg 66%
    23:00 +27°C° 0 mm 2 mps 746 mmHg 67%

    Tomorrow, 23 October, Monday

    Time Temperature Precipitation Wind Pressure Humidity
    00:00 +26°C° 0.3 mm 2 mps 746 mmHg 70%
    01:00 +25°C° 0.3 mm 1 mps 745 mmHg 74%
    02:00 +25°C° 0.3 mm 1 mps 745 mmHg 77%
    03:00 +24°C° 0.8 mm 1 mps 745 mmHg 81%
    04:00 +24°C° 0.8 mm 1 mps 746 mmHg 84%
    05:00 +23°C° 0.8 mm 1 mps 746 mmHg 88%
    06:00 +23°C° 0.3 mm 1 mps 746 mmHg 86%
    07:00 +24°C° 0.3 mm 1 mps 746 mmHg 84%
    08:00 +24°C° 0.3 mm 1 mps 747 mmHg 82%
    09:00 +26°C° 0 mm 1 mps 747 mmHg 71%
    10:00 +28°C° 0 mm 2 mps 747 mmHg 60%
    11:00 +30°C° 0 mm 2 mps 747 mmHg 49%
    12:00 +32°C° 0.1 mm 2 mps 746 mmHg 44%
    13:00 +34°C° 0.1 mm 1 mps 745 mmHg 40%
    14:00 +36°C° 0.1 mm 1 mps 744 mmHg 35%
    15:00 +35°C° 0 mm 1 mps 743 mmHg 37%
    16:00 +35°C° 0 mm 1 mps 743 mmHg 38%
    17:00 +34°C° 0 mm 1 mps 742 mmHg 39%
    18:00 +32°C° 0 mm 1 mps 742 mmHg 45%
    19:00 +30°C° 0 mm 1 mps 743 mmHg 51%
    20:00 +29°C° 0 mm 1 mps 743 mmHg 57%
    21:00 +28°C° 0 mm 1 mps 743 mmHg 60%
    22:00 +28°C° 0 mm 1 mps 744 mmHg 62%
    23:00 +27°C° 0 mm 1 mps 744 mmHg 65%

    Day after tomorrow, 24 October, Tuesday

    Time Temperature Precipitation Wind Pressure Humidity
    00:00 +27°C° 0 mm 1 mps 743 mmHg 68%
    01:00 +26°C° 0 mm 1 mps 743 mmHg 70%
    02:00 +26°C° 0 mm 1 mps 742 mmHg 73%
    03:00 +25°C° 0 mm 1 mps 742 mmHg 74%
    04:00 +23°C° 0 mm 0 mps 742 mmHg 76%
    05:00 +23°C° 0 mm 0 mps 742 mmHg 77%
    06:00 +25°C° 0 mm 0 mps 743 mmHg 71%
    07:00 +28°C° 0 mm 1 mps 743 mmHg 66%
    08:00 +30°C° 0 mm 1 mps 744 mmHg 61%
    09:00 +32°C° 0 mm 1 mps 744 mmHg 54%
    10:00 +35°C° 0 mm 2 mps 744 mmHg 47%
    11:00 +37°C° 0 mm 2 mps 744 mmHg 40%
    12:00 +38°C° 0 mm 2 mps 743 mmHg 38%
    13:00 +39°C° 0 mm 3 mps 742 mmHg 35%
    14:00 +40°C° 0 mm 3 mps 741 mmHg 33%
    15:00 +40°C° 0 mm 3 mps 741 mmHg 33%
    16:00 +39°C° 0 mm 3 mps 740 mmHg 34%
    17:00 +39°C° 0 mm 3 mps 739 mmHg 34%
    18:00 +37°C° 0 mm 2 mps 740 mmHg 40%
    19:00 +35°C° 0 mm 2 mps 740 mmHg 46%
    20:00 +31°C° 0 mm 1 mps 741 mmHg 51%
    21:00 +31°C° 0 mm 1 mps 741 mmHg 53%
    22:00 +30°C° 0 mm 1 mps 742 mmHg 56%
    23:00 +29°C° 0 mm 1 mps 742 mmHg 58%

    25 October, Wednesday

    Time Temperature Precipitation Wind Pressure Humidity
    00:00 +29°C° 0 mm 1 mps 742 mmHg 59%
    01:00 +28°C° 0 mm 1 mps 742 mmHg 61%
    02:00 +28°C° 0 mm 1 mps 741 mmHg 63%
    03:00 +28°C° 0 mm 1 mps 741 mmHg 64%
    04:00 +27°C° 0 mm 1 mps 742 mmHg 66%
    05:00 +27°C° 0 mm 1 mps 742 mmHg 67%
    06:00 +29°C° 0 mm 2 mps 742 mmHg 62%
    07:00 +30°C° 0 mm 2 mps 743 mmHg 57%
    08:00 +32°C° 0 mm 2 mps 744 mmHg 52%
    09:00 +35°C° 0 mm 3 mps 744 mmHg 46%
    10:00 +37°C° 0 mm 3 mps 743 mmHg 40%
    11:00 +39°C° 0 mm 3 mps 743 mmHg 34%
    12:00 +40°C° 0 mm 3 mps 742 mmHg 32%
    13:00 +42°C° 0 mm 3 mps 741 mmHg 30%
    14:00 +43°C° 0 mm 3 mps 740 mmHg 28%
    15:00 +42°C° 0 mm 3 mps 739 mmHg 30%
    16:00 +40°C° 0 mm 3 mps 739 mmHg 31%
    17:00 +40°C° 0 mm 3 mps 738 mmHg 32%
    18:00 +38°C° 0 mm 3 mps 739 mmHg 37%
    19:00 +36°C° 0 mm 2 mps 739 mmHg 42%
    20:00 +34°C° 0 mm 2 mps 740 mmHg 47%
    21:00 +32°C° 0 mm 2 mps 740 mmHg 49%
    22:00 +32°C° 0 mm 2 mps 741 mmHg 51%
    23:00 +31°C° 0 mm 2 mps 741 mmHg 53%

    26 October, Thursday

    Time Temperature Precipitation Wind Pressure Humidity
    00:00 +31°C° 0 mm 2 mps 741 mmHg 53%
    01:00 +31°C° 0 mm 2 mps 740 mmHg 54%
    02:00 +31°C° 0 mm 3 mps 740 mmHg 55%
    03:00 +30°C° 0 mm 2 mps 740 mmHg 57%
    04:00 +30°C° 0 mm 2 mps 740 mmHg 59%
    05:00 +29°C° 0 mm 2 mps 741 mmHg 61%
    06:00 +30°C° 0 mm 3 mps 741 mmHg 58%
    07:00 +33°C° 0 mm 3 mps 742 mmHg 55%
    08:00 +34°C° 0 mm 4 mps 743 mmHg 52%
    09:00 +36°C° 0 mm 4 mps 743 mmHg 44%
    10:00 +39°C° 0 mm 5 mps 743 mmHg 37%
    11:00 +41°C° 0 mm 5 mps 742 mmHg 29%
    12:00 +42°C° 0 mm 5 mps 742 mmHg 28%
    13:00 +43°C° 0 mm 5 mps 741 mmHg 26%
    14:00 +45°C° 0 mm 5 mps 740 mmHg 24%
    15:00 +43°C° 0 mm 5 mps 739 mmHg 25%
    16:00 +43°C° 0 mm 4 mps 739 mmHg 25%
    17:00 +42°C° 0 mm 4 mps 738 mmHg 26%
    18:00 +39°C° 0 mm 3 mps 739 mmHg 31%
    19:00 +37°C° 0 mm 3 mps 739 mmHg 35%
    20:00 +35°C° 0 mm 2 mps 740 mmHg 40%
    21:00 +34°C° 0 mm 2 mps 740 mmHg 42%
    22:00 +32°C° 0 mm 2 mps 740 mmHg 44%
    23:00 +31°C° 0 mm 1 mps 741 mmHg 47%

    27 October, Friday

    Time Temperature Precipitation Wind Pressure Humidity
    00:00 +31°C° 0 mm 2 mps 740 mmHg 47%
    01:00 +31°C° 0 mm 2 mps 740 mmHg 47%
    02:00 +31°C° 0 mm 2 mps 740 mmHg 47%
    03:00 +31°C° 0 mm 2 mps 740 mmHg 49%
    04:00 +30°C° 0 mm 2 mps 740 mmHg 50%
    05:00 +30°C° 0 mm 3 mps 741 mmHg 52%
    06:00 +33°C° 0 mm 3 mps 741 mmHg 49%
    07:00 +34°C° 0 mm 4 mps 742 mmHg 47%
    08:00 +35°C° 0 mm 4 mps 742 mmHg 44%
    09:00 +37°C° 0 mm 4 mps 742 mmHg 39%
    10:00 +40°C° 0 mm 4 mps 742 mmHg 34%
    11:00 +42°C° 0 mm 4 mps 741 mmHg 30%
    12:00 +42°C° 0 mm 4 mps 740 mmHg 28%
    13:00 +43°C° 0 mm 4 mps 739 mmHg 26%
    14:00 +44°C° 0 mm 4 mps 738 mmHg 24%
    15:00 +44°C° 0 mm 4 mps 738 mmHg 25%
    16:00 +43°C° 0 mm 4 mps 737 mmHg 25%
    17:00 +43°C° 0 mm 4 mps 736 mmHg 25%
    18:00 +40°C° 0 mm 3 mps 737 mmHg 29%
    19:00 +38°C° 0 mm 3 mps 737 mmHg 32%
    20:00 +36°C° 0 mm 2 mps 737 mmHg 36%
    21:00 +35°C° 0 mm 2 mps 738 mmHg 38%
    22:00 +33°C° 0 mm 1 mps 738 mmHg 40%
    23:00 +32°C° 0 mm 1 mps 739 mmHg 42%
    Show more